Date,TemperatureHighF,TemperatureAvgF,TemperatureLowF,DewpointHighF,DewpointAvgF,DewpointLowF,HumidityHigh,HumidityAvg,HumidityLow,PressureMaxIn,PressureMinIn,WindSpeedMaxMPH,WindSpeedAvgMPH,GustSpeedMaxMPH,PrecipitationSumIn
2013-1-4,30.0,17.3,0.0,11.8,6.1,-4.9,83,63,40,29.98,29.86,9,4,9,0.00
2013-1-5,34.5,16.1,1.0,10.5,5.3,-2.8,85,65,33,30.06,29.91,8,2,8,0.00
2013-1-6,40.8,24.3,3.9,13.2,8.3,0.0,86,55,29,30.03,29.76,13,4,13,0.00
2013-1-7,50.2,31.2,17.4,16.7,11.6,5.9,77,47,17,29.76,29.68,11,4,11,0.00
2013-1-8,41.0,23.2,8.2,16.0,12.1,4.5,88,65,35,29.95,29.70,8,2,8,0.00
2013-1-9,53.2,28.7,10.6,19.3,14.1,6.5,85,59,21,30.08,29.82,15,4,15,0.00
2013-1-10,43.0,32.3,18.5,21.0,17.0,11.7,80,54,37,29.82,29.44,22,5,22,0.00
2013-1-11,36.1,23.5,5.9,27.3,10.0,-4.5,91,57,26,29.63,29.33,29,10,29,0.00
2013-1-12,28.8,12.2,-3.6,2.8,-1.2,-8.6,81,58,27,29.67,29.58,12,3,12,0.00
2013-1-13,32.7,13.9,0.1,7.7,2.4,-5.1,82,62,28,29.70,29.62,11,4,11,0.00
2013-1-14,25.0,13.9,3.0,11.5,4.8,-4.9,84,67,44,29.77,29.62,14,4,14,0.00
2013-1-15,27.0,8.4,-8.5,2.1,-3.9,-13.7,80,59,30,29.99,29.75,10,2,10,0.00
2013-1-16,34.3,15.7,0.3,6.6,1.4,-5.8,76,55,28,30.08,29.98,8,2,8,0.00
2013-1-17,45.7,22.8,4.8,15.3,8.5,-0.5,81,57,27,30.15,30.03,8,2,8,0.00
2013-1-18,46.2,26.9,11.8,19.2,14.6,8.1,86,63,32,30.06,29.96,9,2,9,0.00
2013-1-19,44.4,25.8,10.0,19.1,14.3,6.8,90,65,32,30.09,29.97,7,2,7,0.00
2013-1-20,43.0,24.6,8.4,20.3,14.2,5.1,89,67,37,30.03,29.93,8,2,8,0.00
2013-1-21,43.9,29.3,10.8,20.5,15.6,7.2,88,61,38,30.04,29.94,9,3,9,0.00
2013-1-22,32.2,25.9,20.3,17.8,14.7,-1.7,76,64,27,29.94,29.52,6,1,6,0.00
2013-1-23,54.7,32.1,14.2,21.5,17.3,10.2,89,59,24,29.99,29.90,9,2,9,0.00
2013-1-24,56.1,38.0,25.0,30.4,21.1,14.9,74,54,20,29.92,29.83,8,3,8,0.00
2013-1-25,51.4,41.1,35.4,37.7,32.8,26.4,83,72,59,29.89,29.80,7,2,7,0.01
2013-1-26,44.2,40.1,36.7,41.8,37.9,31.4,98,92,80,29.81,29.52,14,4,14,0.67
2013-1-27,59.9,44.4,38.7,42.4,38.8,35.5,99,83,44,29.64,29.53,22,4,22,0.17
2013-1-28,43.5,36.0,27.5,36.3,32.1,23.6,96,86,75,29.53,29.43,24,7,24,0.17
2013-1-29,30.7,25.3,19.8,25.8,16.2,10.5,93,69,47,29.62,29.38,29,12,29,0.01
2013-1-30,40.8,28.1,18.7,23.1,16.5,11.9,80,63,40,29.80,29.62,21,8,21,0.01
2013-1-31,47.8,34.5,23.5,30.3,23.9,18.6,83,66,46,29.87,29.77,14,4,14,0.00
2013-2-1,50.0,35.0,22.3,28.3,24.1,19.3,90,67,39,29.90,29.80,15,4,15,0.00
2013-2-2,48.9,33.1,23.2,27.6,23.8,17.8,89,71,38,29.99,29.89,10,3,10,0.00
2013-2-3,45.7,37.7,30.9,30.7,28.4,26.1,84,69,51,29.79,29.68,11,4,11,0.00
2013-2-4,48.9,32.6,24.1,30.7,26.8,21.9,95,80,47,29.76,29.67,7,3,7,0.00
2013-2-5,59.9,37.4,22.1,30.1,25.1,20.5,95,66,23,29.74,29.64,9,2,9,0.00
2013-2-6,56.5,38.4,25.9,28.6,25.2,22.3,88,62,32,29.66,29.55,16,4,16,0.00
2013-2-7,55.0,37.0,22.1,29.3,22.2,13.9,92,60,23,29.77,29.64,11,3,11,0.00
2013-2-8,59.7,43.3,31.6,23.9,14.9,-3.4,65,36,10,29.68,29.37,33,9,33,0.00
2013-2-9,36.9,30.4,25.7,26.8,21.0,12.2,92,70,38,29.45,29.30,24,7,24,0.00
2013-2-10,41.7,28.6,23.7,27.7,23.6,20.2,93,82,52,29.55,29.42,14,4,14,0.07
2013-2-11,41.2,27.7,17.6,24.8,17.7,9.2,89,68,32,29.63,29.53,12,4,12,0.02
2013-2-12,40.3,24.3,9.9,17.2,12.8,4.7,84,63,36,29.76,29.62,17,4,17,0.00
2013-2-13,42.6,27.9,13.1,21.0,15.9,9.5,86,63,38,29.77,29.69,17,4,17,0.00
2013-2-14,50.2,32.3,16.7,23.4,17.9,13.6,89,59,27,29.81,29.70,24,4,24,0.00
2013-2-15,48.7,34.2,20.5,22.4,12.1,-3.8,78,46,12,30.56,29.80,29,7,29,0.00
2013-2-16,54.5,35.6,19.2,17.5,12.9,5.3,74,43,14,30.00,29.75,16,4,16,0.00
2013-2-17,60.1,38.9,23.7,19.2,11.6,-1.2,72,40,10,29.75,29.42,15,3,15,0.00
2013-2-18,45.7,33.9,23.5,18.2,2.1,-11.8,59,29,10,29.71,29.46,17,0,17,0.00
2013-2-19,58.3,37.3,20.8,10.0,3.9,-4.4,56,30,10,29.68,29.36,0,0,0,0.00
2013-2-20,48.0,33.4,24.3,35.6,24.7,10.3,94,72,33,29.36,29.24,0,0,0,0.08
2013-2-21,44.4,31.8,22.1,28.5,23.6,19.4,94,74,40,29.51,29.29,1,0,1,0.01
2013-2-22,37.9,29.3,24.4,26.6,19.8,12.4,88,69,43,29.65,29.50,1,0,1,0.00
2013-2-23,43.9,29.5,15.1,28.0,14.8,8.6,92,57,29,29.65,29.36,1,0,1,0.00
2013-2-24,37.9,26.5,16.3,22.2,12.4,6.4,88,57,29,29.54,29.41,1,0,1,0.00
2013-2-25,45.0,32.0,14.7,17.8,12.1,8.8,82,49,24,29.67,29.53,0,0,0,0.00
2013-2-26,56.7,36.7,23.9,20.1,7.5,-4.7,57,34,10,30.03,29.65,0,0,0,0.09
2013-2-27,46.4,26.4,10.8,12.7,7.5,-4.7,80,49,12,30.17,30.03,0,0,0,0.09
2013-2-28,50.4,32.5,14.0,13.0,7.4,-5.1,75,39,10,30.25,30.16,1,0,1,0.00
2013-3-1,57.9,41.5,26.1,21.2,16.2,10.2,53,37,21,30.30,30.21,0,0,0,0.00
2013-3-2,64.0,45.0,24.3,26.2,20.9,14.8,81,42,15,30.32,29.26,0,0,0,0.09
2013-3-3,68.5,47.5,34.2,34.9,26.3,20.1,66,46,19,29.93,29.54,8,0,8,0.96
2013-3-4,71.8,48.9,37.8,30.8,23.8,12.6,56,39,17,29.93,29.72,8,1,8,0.00
2013-3-5,55.0,37.8,25.0,13.9,10.6,-1.2,61,37,10,30.08,29.93,3,0,3,0.00
2013-3-6,77.7,47.3,32.4,21.4,15.5,8.9,47,30,10,29.97,29.82,5,0,5,0.00
2013-3-7,79.2,47.2,31.8,24.3,14.9,4.2,57,32,10,29.90,29.78,12,0,12,0.00
2013-3-8,39.4,38.3,38.3,13.9,13.7,12.7,36,36,33,29.82,29.81,0,0,0,0.00
2013-4-5,67.8,56.9,52.9,36.1,19.4,13.9,31,23,15,29.97,29.03,8,2,8,0.89
2013-4-6,71.1,58.7,43.5,29.1,18.6,9.7,48,24,10,30.03,29.93,24,6,24,0.00
2013-4-7,71.2,58.5,42.1,24.8,15.2,5.0,41,20,10,29.96,29.80,21,2,21,0.19
2013-4-8,70.5,46.6,37.0,60.7,19.6,1.0,99,40,10,29.81,29.44,40,0,40,0.93
2013-4-9,38.7,36.0,32.4,37.6,34.3,29.0,99,93,84,29.87,29.54,0,0,0,0.42
2013-4-10,51.1,32.3,24.6,30.0,19.9,13.8,91,63,34,29.97,29.87,0,0,0,0.01
2013-4-11,58.5,41.8,27.1,35.9,25.6,14.2,74,54,35,29.97,29.89,1,0,1,0.01
2013-4-12,67.5,49.6,32.2,33.8,22.3,2.5,83,44,10,29.98,29.90,0,0,0,0.00
2013-4-13,70.7,55.4,35.4,31.6,19.0,7.9,62,30,10,29.96,29.69,0,0,0,0.00
2013-4-14,67.6,58.3,52.9,33.9,24.0,18.4,47,27,16,29.81,29.69,1,0,1,0.00
2013-4-15,72.5,59.7,49.6,28.9,19.8,6.8,39,24,10,29.77,29.67,1,0,1,0.00
2013-4-16,73.4,59.7,49.3,29.6,18.7,3.8,39,23,10,29.83,29.69,1,0,1,0.13
2013-4-17,51.1,41.8,30.6,25.3,20.8,8.4,50,44,20,29.98,29.77,0,0,0,0.01
2013-4-18,45.5,32.3,24.3,11.1,5.4,-9.1,45,34,10,30.19,29.98,0,0,0,0.00
2013-4-19,59.2,38.6,19.4,9.5,4.1,-2.7,50,27,10,30.24,30.03,0,0,0,0.00
2013-4-20,62.8,51.2,37.0,24.3,14.3,3.6,40,24,10,30.08,29.96,0,0,0,0.00
2013-4-21,67.5,53.2,37.6,26.9,16.9,3.4,60,28,10,30.17,30.03,0,0,0,0.00
2013-4-22,74.7,59.3,37.4,18.0,14.7,7.7,43,21,10,30.04,29.92,0,0,0,0.00
2013-4-23,74.7,64.1,38.7,14.5,9.5,-12.3,24,12,10,29.94,29.86,0,0,0,0.02
2013-4-24,68.4,49.0,27.9,9.7,-0.4,-10.4,26,13,10,29.96,29.90,0,0,0,0.00
2013-4-25,74.7,54.1,41.0,33.2,13.5,-3.7,44,21,10,29.94,29.78,1,0,1,0.00
2013-4-26,72.7,57.3,40.3,37.3,23.5,1.7,75,35,10,30.07,29.90,1,0,1,0.00
2013-4-27,75.6,59.2,43.2,25.5,15.3,-1.2,45,22,10,30.10,29.95,1,0,1,0.02
2013-4-28,79.3,62.0,41.7,18.1,11.4,-0.5,32,15,10,29.98,29.83,1,0,1,0.00
2013-4-29,81.3,64.1,42.4,19.5,14.6,5.0,35,16,10,29.85,29.69,0,0,0,0.00
2013-4-30,83.8,67.1,44.2,21.4,16.0,6.3,32,15,10,29.75,29.65,1,0,1,0.00
2013-5-1,67.5,59.0,44.4,30.4,8.4,-8.7,37,14,10,30.08,29.71,1,0,1,0.00
2013-5-2,63.5,48.1,37.2,5.9,0.1,-12.7,21,14,10,30.23,30.08,1,0,1,0.00
2013-5-3,75.2,49.2,36.1,21.4,6.0,-5.7,25,18,10,30.14,29.88,13,1,13,0.07
2013-5-4,77.9,59.4,36.1,27.3,17.6,2.0,28,20,14,29.90,29.78,34,7,34,0.00
2013-5-5,73.6,62.5,55.4,31.6,22.2,16.0,34,22,14,29.98,29.86,32,11,32,0.00
2013-5-6,62.4,54.7,48.2,46.6,39.7,31.8,88,58,34,29.97,29.88,24,6,24,0.07
2013-5-7,72.5,57.1,41.5,41.9,31.6,19.2,87,46,14,29.98,29.81,21,7,21,0.00
2013-5-8,60.4,52.2,40.1,42.7,34.8,28.8,89,54,33,29.99,29.86,27,7,27,0.31
2013-5-9,64.6,50.8,38.7,40.4,35.2,31.2,80,57,33,30.04,29.95,17,4,17,0.00
2013-5-10,72.7,54.9,39.2,38.9,35.1,24.6,84,51,18,30.18,30.01,28,6,28,0.00
2013-5-11,76.3,59.0,41.9,39.8,32.5,21.5,77,43,15,30.24,30.15,18,5,18,0.00
2013-5-12,79.9,63.5,45.5,37.9,32.6,26.6,63,35,17,30.23,30.06,21,6,21,0.00
2013-5-13,86.9,71.4,52.0,37.6,31.4,23.1,49,25,13,30.18,30.03,14,5,14,0.00
2013-5-14,89.1,70.5,54.5,39.5,34.4,26.4,50,29,13,30.06,29.90,28,8,28,0.00
2013-5-15,88.0,72.1,57.0,44.0,34.0,19.9,55,28,13,29.99,29.83,28,8,28,0.00
2013-5-16,85.3,69.4,49.1,33.1,23.6,15.9,34,18,13,29.96,29.82,21,6,21,0.00
2013-5-17,83.8,68.1,47.7,32.9,23.4,16.0,35,19,12,29.96,29.84,27,7,27,0.00
2013-5-18,77.4,65.0,55.8,32.1,25.7,19.9,37,23,14,29.95,29.84,33,7,33,0.00
2013-5-19,72.9,60.7,50.5,36.6,28.4,20.1,53,31,14,29.92,29.81,31,10,31,0.00
2013-5-20,67.1,55.3,46.9,42.2,34.7,25.5,73,47,25,29.95,29.85,25,7,25,0.05
2013-5-21,75.4,59.2,39.7,40.1,31.0,20.1,84,42,14,29.99,29.85,26,6,26,0.00
2013-5-22,88.5,67.3,46.8,33.1,26.4,19.9,53,24,13,29.89,29.75,20,5,20,0.00
2013-5-23,88.2,71.0,49.1,33.1,25.5,18.3,35,19,12,29.94,29.80,33,10,33,0.00
2013-5-24,86.0,69.9,51.8,33.1,24.4,17.7,28,18,13,30.03,29.89,36,7,36,0.00
2013-5-25,87.6,69.5,48.0,33.1,23.9,14.7,30,18,13,30.03,29.87,26,6,26,0.00
2013-5-26,83.8,68.8,50.4,32.5,23.1,15.2,29,18,12,30.02,29.88,27,6,27,0.00
2013-5-27,79.7,66.4,47.8,27.3,21.6,14.3,28,18,13,29.97,29.81,22,6,22,0.00
2013-5-28,81.5,65.5,47.3,39.0,23.2,14.8,42,21,13,29.84,29.67,31,7,31,0.00
2013-5-29,75.4,62.4,50.7,42.4,30.8,19.9,68,35,14,29.79,29.68,36,12,36,0.00
2013-5-30,78.8,65.0,46.4,31.6,26.7,19.9,48,26,14,29.87,29.78,39,9,39,0.00
2013-5-31,79.0,65.0,45.0,28.1,23.3,18.0,38,21,14,30.00,29.84,36,10,36,0.00
2013-6-1,84.4,65.7,43.2,31.9,20.6,8.5,26,18,12,30.08,29.96,19,6,19,0.00
2013-6-2,93.4,71.8,49.6,37.6,25.7,14.1,30,18,12,30.03,29.83,31,7,31,0.00
2013-6-3,87.3,73.0,55.2,38.8,30.8,22.1,40,22,13,29.94,29.86,59,6,59,0.00
2013-6-4,90.9,73.9,53.6,34.0,28.9,21.5,38,20,12,29.97,29.87,21,5,21,0.00
2013-6-5,89.8,74.8,56.1,34.2,27.9,19.9,32,18,12,29.97,29.87,25,6,25,0.00
2013-6-6,90.7,75.1,56.5,33.1,26.7,19.9,27,17,11,29.98,29.86,27,7,27,0.00
2013-6-7,90.5,74.3,56.5,43.1,32.4,23.4,46,23,12,30.00,29.83,28,8,28,0.00
2013-6-8,94.6,77.6,56.7,38.6,31.4,23.5,36,20,11,29.91,29.81,30,9,30,0.00
2013-6-9,97.5,80.5,60.3,38.6,30.7,21.5,27,17,12,30.00,29.90,24,6,24,0.00
2013-6-10,97.7,77.7,61.5,43.9,30.9,21.6,28,19,12,30.02,29.89,37,6,37,0.00
2013-6-11,95.0,79.6,63.5,38.6,28.3,20.1,24,16,11,30.04,29.95,27,8,27,0.00
2013-6-12,95.0,77.8,55.4,38.6,27.4,19.9,28,16,11,30.10,30.00,20,4,20,0.00
2013-6-13,96.4,80.0,61.5,38.8,30.3,20.1,24,17,12,30.06,29.93,30,7,30,0.00
2013-6-14,92.5,80.3,66.0,44.6,34.2,19.9,39,20,12,30.00,29.88,30,8,30,0.00
2013-6-15,92.1,72.6,58.8,44.6,32.7,21.2,45,25,12,30.08,29.93,40,7,40,0.00
2013-6-16,91.9,74.3,55.9,46.1,38.4,30.7,54,30,13,30.10,29.99,34,7,34,0.00
2013-6-17,92.5,76.6,58.5,40.6,32.4,20.1,40,22,11,30.06,29.92,27,5,27,0.00
2013-6-18,92.5,75.9,57.2,50.1,30.4,19.9,44,21,11,30.03,29.86,27,8,27,0.00
2013-6-19,93.9,75.8,53.4,38.5,26.0,16.8,25,16,11,29.93,29.80,30,7,30,0.00
2013-6-20,93.0,72.0,53.1,38.2,24.0,15.5,24,17,11,29.96,29.84,22,5,22,0.00
2013-6-21,91.9,75.5,54.3,32.9,25.9,16.6,26,16,11,30.01,29.87,24,6,24,0.00
2013-6-22,90.5,75.5,55.4,33.1,26.2,19.9,30,16,11,29.98,29.86,24,7,24,0.00
2013-6-23,91.2,74.9,55.6,32.9,26.1,19.8,26,17,11,29.95,29.82,23,6,23,0.00
2013-6-24,89.1,76.6,56.7,33.1,26.6,19.9,25,16,12,29.96,29.88,25,9,25,0.00
2013-6-25,90.7,75.4,56.3,34.5,27.0,19.9,25,17,13,30.04,29.93,23,6,23,0.00
2013-6-26,96.1,79.6,57.2,38.6,32.6,26.0,33,19,12,30.11,30.00,27,6,27,0.00
2013-6-27,102.9,83.5,61.3,45.7,34.5,27.3,32,18,11,30.15,30.05,29,4,29,0.00
2013-6-28,103.3,83.7,66.6,47.9,38.9,29.6,33,21,11,30.18,30.02,37,8,37,0.00
2013-6-29,100.2,79.8,65.7,49.4,44.0,35.1,46,30,11,30.15,30.00,32,7,32,0.00
2013-6-30,97.7,78.9,63.5,63.4,46.9,38.4,57,35,14,30.11,29.93,34,7,34,0.02
2013-7-1,94.3,77.7,60.6,51.0,46.8,42.0,60,36,18,30.16,29.96,29,8,29,0.00
2013-7-2,90.0,77.0,60.6,49.9,46.9,40.3,62,37,22,30.16,29.92,29,9,29,0.00
2013-7-3,136.0,76.2,63.5,60.8,48.6,30.5,65,41,10,30.08,29.83,36,11,36,0.00
2013-7-4,97.2,79.1,63.5,49.7,44.4,36.0,51,32,12,29.99,29.85,18,6,18,0.00
2013-7-5,96.3,79.7,67.5,58.8,48.6,37.6,58,36,14,29.98,29.82,25,8,25,0.01
2013-7-6,95.4,76.9,63.7,55.5,52.1,44.4,67,45,21,30.05,29.86,28,7,28,0.00
2013-7-7,95.4,79.9,64.0,55.6,49.9,42.3,66,39,18,30.05,29.91,31,6,31,0.00
2013-7-8,98.1,82.2,66.7,54.0,46.8,36.0,54,32,13,30.13,30.00,26,9,26,0.00
2013-7-9,99.7,83.4,67.6,54.3,46.8,34.3,57,32,12,30.17,30.02,22,6,22,0.00
2013-7-10,101.1,81.7,67.6,54.1,48.7,35.1,49,34,11,30.13,29.99,40,10,40,0.00
2013-7-11,94.5,76.2,61.9,63.4,55.1,48.1,92,51,24,30.12,29.92,22,6,22,0.07
2013-7-12,93.2,76.4,63.9,60.1,55.6,47.3,75,52,23,30.06,29.97,25,7,25,0.01
2013-7-13,93.4,77.2,63.3,58.5,53.7,45.4,80,48,22,30.11,30.01,22,7,22,0.00
2013-7-14,96.8,78.0,68.5,62.4,54.9,47.6,70,47,22,30.10,29.95,28,7,28,0.07
2013-7-15,86.5,69.3,61.9,62.4,58.8,51.1,91,71,36,30.09,29.98,27,7,27,0.46
2013-7-16,84.7,71.2,62.4,60.2,53.5,49.3,90,56,33,30.15,30.03,27,6,27,0.00
2013-7-17,88.9,73.7,61.0,57.9,50.1,42.6,83,48,22,30.21,30.07,24,7,27,0.02
2013-7-18,90.9,76.9,64.4,54.6,50.6,47.3,61,42,24,30.18,30.01,22,7,22,0.00
2013-7-19,89.4,74.5,63.7,55.9,53.0,47.3,66,49,25,30.10,29.95,32,8,32,0.00
2013-7-20,94.1,76.7,65.8,56.6,52.8,44.7,68,46,21,30.08,29.91,33,7,33,0.00
2013-7-21,93.6,76.7,65.1,55.4,51.2,44.6,63,43,21,30.04,29.93,31,8,34,0.00
2013-7-22,97.3,78.8,62.6,54.2,49.5,43.8,60,38,19,30.06,29.95,24,6,24,0.00
2013-7-23,96.1,78.9,67.8,57.2,50.0,44.4,63,38,21,30.07,29.96,42,6,42,0.05
2013-7-24,94.8,79.1,67.8,55.5,49.6,41.1,61,38,17,30.12,29.97,45,8,45,0.00
2013-7-25,95.2,77.5,61.9,56.3,51.9,43.8,74,45,22,30.13,29.99,19,7,19,0.00
2013-7-26,95.2,78.3,65.7,58.9,52.2,37.5,65,43,17,30.19,30.04,33,9,33,0.00
2013-7-27,91.8,76.3,64.0,55.4,51.7,45.8,65,44,22,30.19,29.94,23,8,23,0.00
2013-7-28,87.1,72.2,63.0,62.2,56.4,47.8,91,60,31,30.01,29.91,24,6,24,0.04
2013-7-29,89.4,74.2,60.4,56.6,50.2,40.2,80,47,20,30.12,29.99,27,6,27,0.00
2013-7-30,93.0,78.1,61.2,50.2,42.9,32.3,61,32,13,30.22,30.12,23,6,23,0.00
2013-7-31,96.4,81.2,61.5,46.2,40.5,33.0,49,26,13,30.22,30.07,17,5,17,0.00
2013-8-1,84.7,74.6,65.3,60.1,53.1,40.8,75,49,24,30.16,30.05,20,7,22,0.02
2013-8-2,88.9,73.7,63.5,57.5,54.3,45.8,76,54,28,30.14,30.00,36,8,36,0.00
2013-8-3,90.9,75.5,61.3,60.3,53.3,45.4,92,51,24,30.14,30.02,21,6,21,0.00
2013-8-4,93.7,75.8,63.1,55.6,51.1,44.7,67,45,19,30.14,30.01,28,8,28,0.00
2013-8-5,92.3,74.2,59.7,57.2,51.7,42.6,84,50,21,30.15,29.99,23,6,25,0.00
2013-8-6,89.8,71.1,61.5,59.5,53.3,45.3,92,57,23,30.08,29.98,23,7,23,0.19
2013-8-7,75.4,64.8,59.7,60.9,57.2,53.1,96,77,50,30.07,28.53,20,4,20,0.02
2013-8-8,84.2,66.3,56.7,60.5,52.9,43.9,99,66,30,30.07,30.00,25,5,25,0.00
2013-8-9,89.6,71.0,54.5,50.8,44.8,33.1,75,44,15,30.12,30.03,17,6,17,0.00
2013-8-10,87.1,65.6,56.5,56.3,50.0,41.9,87,60,25,30.24,30.08,36,9,36,0.35
2013-8-11,87.4,68.5,52.9,53.6,47.4,32.5,83,52,17,30.20,30.05,27,6,27,0.00
2013-8-12,88.3,73.5,60.4,53.3,46.8,38.4,69,42,22,30.15,28.58,23,4,23,0.00
2013-8-13,90.5,74.4,59.2,51.7,41.4,28.0,64,36,13,30.17,30.04,23,5,23,0.00
2013-8-14,94.1,76.9,61.3,49.3,38.3,29.4,51,28,12,30.13,30.02,21,6,21,0.00
2013-8-15,95.0,77.6,60.8,48.4,37.1,25.4,43,26,12,30.14,28.62,17,6,17,0.00
2013-8-16,96.3,79.1,61.5,45.4,38.4,30.8,39,25,12,30.15,30.04,36,5,36,0.00
2013-8-17,95.4,76.2,62.6,52.5,44.2,37.6,46,33,15,30.16,30.03,45,6,45,0.01
2013-8-18,92.8,76.9,63.7,52.2,47.4,39.4,61,38,20,30.17,28.51,55,5,55,0.00
2013-8-19,95.9,78.5,64.6,61.0,49.4,42.0,74,38,16,30.13,28.49,57,7,57,0.01
2013-8-20,94.1,77.0,63.0,56.3,50.3,44.7,65,42,21,30.09,28.49,51,6,51,0.00
2013-8-21,95.9,74.6,64.8,59.1,50.7,39.1,79,47,15,30.13,28.51,56,7,56,0.06
2013-8-22,90.1,74.5,58.1,60.0,54.0,45.0,96,53,21,30.15,28.54,53,4,53,0.00
2013-8-23,91.8,76.7,62.2,54.6,45.1,28.2,74,39,12,30.08,28.44,31,8,31,0.01
2013-8-24,87.4,70.3,63.3,61.3,54.4,47.2,83,60,30,30.12,28.53,51,5,51,0.09
2013-8-25,80.1,65.7,61.0,65.0,60.5,56.6,97,85,51,30.20,28.64,57,6,57,0.22
2013-8-26,89.1,72.0,60.6,63.9,57.7,49.8,97,65,27,30.21,28.66,43,6,43,0.00
2013-8-27,92.3,74.1,61.2,59.1,55.5,45.8,82,56,22,30.14,30.01,24,4,24,0.00
2013-8-28,91.9,76.1,61.2,60.0,53.4,40.8,88,50,18,30.12,30.02,14,4,14,0.00
2013-8-29,91.6,76.5,64.8,56.7,52.8,48.7,65,46,25,30.17,30.08,19,5,19,0.00
2013-8-30,94.5,78.2,66.0,61.1,54.1,50.2,65,45,26,30.17,30.02,18,4,18,0.01
2013-8-31,93.2,77.5,62.6,59.5,54.3,48.8,69,47,25,30.10,29.96,17,4,17,0.00
2013-9-1,92.5,77.1,62.2,56.4,52.2,46.7,63,44,23,30.12,28.49,34,7,34,0.00
2013-9-2,93.9,76.7,63.3,58.1,52.5,40.2,80,47,22,30.14,28.50,17,5,17,0.00
2013-9-3,92.8,76.3,66.6,58.5,53.2,48.1,63,46,24,30.15,30.05,31,5,31,0.00
2013-9-4,97.0,78.1,61.9,56.4,51.7,42.3,74,44,22,30.18,28.65,42,5,42,0.00
2013-9-5,93.6,79.6,63.7,50.2,39.7,30.3,49,26,12,30.19,30.07,21,7,21,0.00
2013-9-6,95.4,78.1,61.9,44.3,37.8,29.9,45,25,13,30.18,28.54,55,4,55,0.00
2013-9-7,94.6,77.7,61.7,51.0,42.1,31.4,45,30,14,30.11,28.56,50,7,50,0.00
2013-9-8,87.8,73.5,61.0,54.4,51.1,45.4,67,47,24,30.07,28.44,51,6,51,0.00
2013-9-9,86.4,67.1,59.4,59.3,55.2,49.5,96,69,33,29.99,29.12,27,5,47,0.09
2013-9-10,66.2,62.3,59.5,60.7,58.0,55.9,95,86,79,30.04,29.93,24,7,24,0.53
2013-9-11,83.3,68.3,58.8,60.4,54.0,43.0,97,64,29,30.09,28.51,12,4,12,0.00
2013-9-12,81.7,63.5,56.5,60.7,55.9,50.8,97,78,40,30.11,30.00,34,7,34,1.07
2013-9-13,74.3,63.5,55.0,59.9,55.4,53.4,98,77,52,30.04,29.92,22,7,22,0.01
2013-9-14,79.7,65.3,57.9,56.7,53.8,50.5,92,68,39,30.01,29.88,27,7,27,0.01
2013-9-15,82.6,65.2,54.7,54.3,51.3,46.6,92,64,32,30.07,28.53,52,5,52,0.01
2013-9-16,84.4,67.3,54.7,53.8,50.9,45.6,85,59,30,30.14,30.02,16,6,16,0.00
2013-9-17,83.7,71.8,59.2,54.9,51.8,45.8,77,52,29,30.07,29.14,20,8,20,0.00
2013-9-18,77.0,66.3,58.5,61.4,55.5,52.2,93,69,50,29.99,29.86,27,7,27,0.28
2013-9-19,81.0,66.1,52.0,53.7,44.4,24.2,93,53,15,30.00,29.92,18,4,18,0.00
2013-9-20,85.1,67.1,49.1,47.7,40.8,30.6,78,43,17,30.06,28.45,12,4,12,0.00
2013-9-21,83.7,67.6,55.4,51.4,47.0,37.9,71,50,23,30.04,29.12,36,6,36,0.01
2013-9-22,75.6,61.1,54.3,58.4,52.0,47.2,91,74,41,29.88,28.90,38,15,38,0.14
2013-9-23,69.6,59.2,50.7,51.8,44.0,33.0,91,61,28,30.21,29.77,30,18,30,0.14
2013-9-24,81.3,59.9,42.1,43.9,38.5,30.7,83,50,20,30.26,30.08,14,3,14,0.00
2013-9-25,81.9,65.1,47.3,41.2,33.5,23.3,67,36,14,30.08,29.83,36,10,36,0.00
2013-9-26,64.4,61.3,58.1,26.5,24.5,22.6,29,24,21,29.93,29.91,18,9,18,0.00
2013-9-27,64.2,51.8,42.8,47.1,31.9,18.3,93,50,24,30.17,29.89,20,6,20,0.11
2013-9-28,67.8,49.1,32.2,35.7,27.1,17.7,90,48,19,30.31,28.72,48,3,48,0.00
2013-9-29,74.1,55.3,35.8,34.6,26.4,19.9,74,38,14,30.32,30.17,14,3,14,0.00
2013-9-30,78.6,60.8,41.5,31.8,27.7,22.6,62,31,15,30.19,30.07,17,4,17,0.00
2013-10-1,79.9,61.7,43.2,36.8,29.3,22.0,65,33,14,30.16,30.08,14,3,14,0.00
2013-10-2,79.7,60.7,42.4,32.5,27.9,22.3,61,32,14,30.16,29.32,44,3,44,0.00
2013-10-3,76.8,60.6,44.2,35.9,28.6,22.3,53,32,17,30.05,29.87,26,7,26,0.00
2013-10-4,55.6,46.1,35.6,33.7,22.6,14.6,64,42,21,30.23,29.92,27,14,27,0.00
2013-10-5,59.7,44.8,30.7,25.0,21.2,15.9,65,42,22,30.33,30.22,17,6,17,0.00
2013-10-6,69.8,48.6,29.8,26.0,22.1,18.9,66,38,17,30.37,30.28,12,3,12,0.00
2013-10-7,79.9,56.6,35.8,30.0,24.7,19.9,64,33,14,30.32,30.14,13,3,13,0.00
2013-10-8,76.5,59.4,45.1,32.5,26.7,22.8,46,30,16,30.14,29.95,16,4,16,0.00
2013-10-9,73.6,59.4,43.0,37.5,27.5,21.5,59,33,15,30.03,29.91,33,6,33,0.00
2013-10-10,63.5,49.3,37.6,45.6,36.9,28.5,95,66,28,30.05,29.84,32,8,32,0.27
2013-10-11,58.5,44.3,32.7,40.2,35.3,29.1,94,72,48,30.16,30.04,12,3,12,0.00
2013-10-12,65.8,48.8,35.1,38.6,33.6,23.7,95,62,22,30.22,30.10,17,5,17,0.00
2013-10-13,74.3,57.7,42.1,40.2,33.8,23.9,75,45,16,30.17,29.99,30,8,30,0.00
2013-10-14,59.9,50.7,39.9,36.2,30.3,22.6,76,48,25,30.17,30.06,22,6,22,0.00
2013-10-15,64.4,48.0,32.4,33.0,27.1,21.3,76,48,21,30.16,30.03,20,5,20,0.00
2013-10-16,54.7,44.6,34.3,33.0,25.6,17.4,80,50,25,30.19,30.11,24,8,24,0.00
2013-10-17,60.4,45.0,28.2,26.7,19.8,12.4,76,40,21,30.21,30.06,19,4,19,0.00
2013-10-18,59.9,46.8,33.8,24.8,17.9,9.6,55,33,21,30.21,30.06,26,9,26,0.00
2013-10-19,62.1,45.6,28.0,22.5,17.4,10.3,57,33,21,30.26,30.13,21,5,21,0.00
2013-10-20,65.3,48.8,29.1,24.8,21.0,15.7,70,36,18,30.14,30.00,23,5,23,0.00
2013-10-21,66.6,50.3,34.7,24.0,20.4,14.8,55,32,18,30.23,30.06,15,4,15,0.00
2013-10-22,67.6,49.0,31.5,24.3,21.1,17.1,59,36,18,30.30,30.22,11,3,11,0.00
2013-10-23,44.8,43.1,35.1,25.9,24.4,19.7,59,48,42,30.25,30.22,4,1,4,0.00
2013-10-24,44.6,44.6,44.6,25.1,25.1,25.1,46,46,46,30.25,30.25,2,2,2,0.00
2013-10-25,44.6,44.6,44.6,25.1,25.1,25.1,46,46,46,30.25,30.25,2,2,2,0.00
2013-10-26,44.6,44.6,44.6,25.1,25.1,25.1,46,46,46,30.25,30.25,2,2,2,0.00
2013-10-27,44.6,44.6,44.6,25.1,25.1,25.1,46,46,46,30.25,30.25,2,2,2,0.00
2013-10-28,89.8,52.6,44.6,54.3,25.4,17.1,46,36,18,30.30,29.92,25,6,25,3.01
2013-10-29,63.1,50.6,37.2,38.7,29.4,20.6,98,48,21,30.06,29.92,27,10,27,0.02
2013-10-30,51.4,37.9,32.7,39.6,32.9,23.8,98,84,39,30.06,29.97,21,5,21,0.01
2013-10-31,50.2,38.8,29.5,35.1,30.1,24.6,97,73,46,30.17,30.06,22,8,22,0.01
2013-11-1,59.2,42.6,26.4,32.9,26.8,21.3,87,57,26,30.30,30.15,22,6,22,0.00
2013-11-2,68.5,45.7,28.6,30.3,25.1,21.2,81,49,20,30.33,30.08,12,3,12,0.00
2013-11-3,65.8,49.5,38.3,33.9,24.0,16.4,59,39,20,30.09,29.88,19,5,19,0.00
2013-11-4,63.5,44.8,25.7,43.8,26.4,16.6,86,51,28,30.03,29.91,14,4,14,0.02
2013-11-5,45.3,37.7,27.1,38.0,17.8,2.3,93,49,22,30.27,29.96,29,11,29,0.04
2013-11-6,50.0,34.0,16.9,15.0,9.6,3.8,68,38,22,30.44,30.27,16,4,16,0.00
2013-11-7,66.7,41.2,25.9,22.5,16.2,7.0,58,38,19,30.47,30.27,12,2,12,0.00
2013-11-8,63.3,46.7,32.5,23.1,18.7,11.3,56,35,20,30.28,30.13,14,4,14,0.00
2013-11-9,66.7,48.3,32.5,23.2,18.9,11.5,56,33,18,30.27,30.18,14,4,14,0.00
2013-11-10,87.3,49.4,36.7,49.2,18.3,16.3,47,29,27,30.25,29.71,13,3,13,2.88
2013-11-11,64.8,46.5,28.4,23.5,20.5,16.0,66,38,20,30.00,29.90,12,3,12,0.00
2013-11-12,69.6,48.9,30.6,29.7,22.4,16.8,58,38,17,30.11,30.00,14,4,14,0.00
2013-11-13,64.8,45.8,33.1,34.1,28.6,22.3,68,53,26,30.07,29.77,12,3,12,0.00
2013-11-14,59.5,43.2,32.5,33.2,25.3,18.3,73,51,25,29.77,29.60,17,4,17,0.00
2013-11-15,59.5,44.0,31.8,39.2,29.4,19.9,94,59,32,29.60,29.33,24,5,24,0.01
2013-11-16,54.0,45.2,33.4,39.3,33.8,29.3,98,67,41,29.51,29.36,24,6,24,0.01
2013-11-17,55.8,43.5,31.6,34.1,30.3,25.1,82,61,37,29.83,29.51,18,4,18,0.00
2013-11-18,61.7,42.8,29.7,32.5,27.2,22.2,82,57,25,29.89,29.78,11,3,11,0.00
2013-11-19,63.7,45.3,31.5,32.1,27.9,23.6,75,52,25,29.78,29.58,13,3,13,0.00
2013-11-20,56.1,41.5,28.9,41.2,32.4,22.2,99,72,41,29.62,29.52,16,3,16,0.11
2013-11-21,49.5,43.9,38.5,43.4,40.6,38.2,99,89,70,29.75,29.60,54,5,54,0.02
2013-11-22,41.7,39.1,36.5,40.6,36.9,31.9,99,92,81,29.88,29.73,24,8,24,0.47
2013-11-23,45.1,37.2,32.9,36.4,32.9,30.0,94,85,66,29.89,29.80,24,6,24,0.13
2013-11-24,32.7,28.3,26.1,30.9,24.8,20.7,95,87,73,29.85,29.70,18,5,18,0.00
2013-11-25,38.1,32.0,27.0,29.1,27.6,24.2,95,84,66,29.93,29.66,14,5,14,0.06
2013-11-26,41.0,34.4,29.3,32.2,28.6,25.7,87,79,65,30.00,29.92,11,4,11,0.04
2013-11-27,53.4,35.3,25.9,32.4,27.1,21.6,87,73,43,29.98,29.81,13,3,13,0.01
2013-11-28,52.2,37.9,27.0,32.8,28.4,23.2,91,70,43,29.87,29.78,11,3,11,0.00
2013-11-29,57.0,37.5,27.9,34.9,27.9,20.7,93,70,36,29.96,29.87,10,3,10,0.00
2013-11-30,43.0,31.6,26.4,32.5,27.8,24.1,94,86,63,29.98,29.88,11,3,11,0.00
2013-12-1,31.8,30.6,29.1,29.7,28.4,26.8,93,92,88,29.99,29.89,11,4,11,0.00
2013-12-2,41.4,31.4,27.0,30.9,26.2,22.1,88,81,64,29.90,29.56,14,3,14,0.00
2013-12-3,56.7,40.3,26.4,29.6,25.0,20.6,83,58,27,29.56,29.26,21,5,21,0.00
2013-12-4,44.8,32.4,19.0,31.0,23.1,9.1,93,70,45,29.56,29.25,26,8,26,0.00
2013-12-5,36.3,22.8,16.7,19.7,13.8,8.6,82,69,48,29.58,29.48,14,4,14,0.02
2013-12-6,36.1,22.7,17.8,16.9,9.6,-2.2,81,59,26,29.71,29.57,10,2,10,0.00
2013-12-7,37.8,28.4,17.6,23.3,11.7,3.4,79,50,30,29.68,29.40,28,7,28,0.00
2013-12-8,29.1,22.1,11.7,23.7,5.6,-7.0,84,51,24,29.64,29.39,27,9,27,0.00
2013-12-9,24.3,12.4,1.8,14.2,-5.6,-12.9,83,44,28,30.01,29.64,21,6,21,0.00
2013-12-10,36.9,13.6,-1.7,2.4,-4.3,-11.8,66,46,23,30.02,29.87,12,2,12,0.00
2013-12-11,40.6,19.9,3.6,13.2,3.3,-5.7,66,50,25,30.06,29.90,8,2,8,0.00
2013-12-12,52.5,26.3,10.6,19.0,11.0,2.5,72,55,24,30.06,29.75,11,2,11,0.00
2013-12-13,39.4,29.3,20.5,22.7,16.4,12.2,76,59,44,29.75,29.64,25,7,25,0.00
2013-12-14,40.5,26.4,15.1,19.7,13.6,7.7,73,59,40,30.01,29.75,12,3,13,0.00
2013-12-15,44.8,26.3,13.8,21.1,14.0,6.7,76,60,36,30.03,29.96,11,2,11,0.00
2013-12-16,45.0,28.3,16.0,22.8,16.2,9.4,77,61,39,30.03,29.95,11,2,11,0.00
2013-12-17,48.6,30.1,16.5,24.9,18.5,10.2,80,63,37,30.07,29.93,7,2,7,0.00
2013-12-18,48.4,32.8,19.9,26.9,20.9,14.2,79,63,41,29.93,29.57,8,2,8,0.00
2013-12-19,54.5,40.9,30.7,26.9,22.6,19.3,70,49,27,29.57,29.39,23,5,23,0.00
2013-12-20,53.1,37.7,30.2,31.7,27.3,22.6,92,67,43,29.48,29.37,14,3,14,0.00
2013-12-21,37.4,29.6,23.9,28.9,22.4,16.4,93,75,56,29.50,29.31,29,8,29,0.00
2013-12-22,43.5,29.9,21.0,17.5,13.7,8.6,68,51,30,29.88,29.50,20,5,20,0.00
2013-12-23,47.1,28.7,16.2,20.5,14.6,7.7,75,56,34,30.03,29.87,10,2,10,0.00
2013-12-24,46.8,30.9,17.2,23.7,17.0,9.8,77,57,40,30.00,29.83,19,4,19,0.00
2013-12-25,46.0,29.3,15.4,20.1,13.4,8.4,76,53,28,30.02,29.91,11,2,11,0.00
2013-12-26,43.7,28.2,14.4,19.0,11.7,6.5,73,52,28,30.00,29.90,9,2,9,0.00
2013-12-27,52.0,31.4,18.0,20.6,14.3,7.7,72,51,23,30.00,29.85,9,2,9,0.00
2013-12-28,46.8,30.7,17.1,21.2,16.1,9.7,77,56,32,29.85,29.61,11,3,13,0.00
2013-12-29,45.5,30.4,20.7,22.2,15.7,9.7,75,55,34,29.83,29.62,16,4,16,0.00
2013-12-30,45.9,28.0,14.9,15.3,9.9,6.4,72,49,25,29.94,29.81,11,2,11,0.00
2013-12-31,48.4,31.8,17.8,19.3,13.2,5.9,69,48,25,29.93,29.78,14,3,14,0.00
2014-1-1,53.8,35.9,23.0,21.8,15.1,10.2,64,44,22,29.90,29.76,28,7,28,0.00
2014-1-2,51.3,31.9,17.6,18.7,13.1,6.9,70,48,24,29.97,29.84,11,2,11,0.00